Temperature
24 24 23 23 21 22 23 23 26 27 26 26 26 25 25 24 23 20 20 20 22 21 20 20 21 21 21 21 20 20 20 20 20 20 20 19 20 19 19 19 19 19 19 19 19 19 19 19 19
25 25 24 22 22 23 23 23 25 27 27 26 26 25 24 22 20 19 20 21 22 22 21 21 21 21 21 21 20 20 20 20 19 19 19 19 19 19 19 19 19 19 19 19 19 19 20 20 20
26 25 24 22 23 24 24 25 27 28 28 28 26 25 24 22 19 20 21 21 22 22 21 21 21 21 21 21 20 20 20 19 19 19 19 19 19 19 19 19 19 19 19 20 20 20 20 20 20
25 25 24 22 24 26 27 27 28 28 28 27 26 24 24 23 21 21 21 22 22 22 21 21 21 21 21 20 20 20 20 20 19 19 19 19 19 19 19 19 19 19 19 19 20 20 20 20 20
25 24 22 22 25 28 29 29 30 28 27 26 25 23 23 23 23 22 22 22 22 21 21 21 21 21 21 20 20 20 20 20 19 19 19 19 19 19 19 19 19 19 19 19 19 19 19 19 19
24 23 22 23 25 29 29 30 29 27 26 25 24 23 23 22 22 22 22 22 22 22 21 21 21 21 21 20 20 20 20 20 19 19 19 19 19 19 19 19 19 19 19 19 19 19 19 19 19
24 22 23 24 26 28 30 30 29 27 26 25 24 23 23 21 22 22 22 22 22 22 21 21 21 21 21 21 20 20 20 20 20 19 19 19 19 19 19 19 19 19 19 19 19 19 19 19 19
26 21 23 24 26 27 30 30 30 29 27 26 25 23 23 22 22 21 21 22 21 22 22 21 21 21 21 21 20 20 20 20 20 20 20 19 19 19 19 19 19 19 19 18 18 19 19 19 19
26 21 21 24 26 27 30 30 30 29 27 27 26 25 24 23 22 21 21 21 21 21 22 22 21 21 21 21 20 20 20 20 20 20 19 19 19 19 19 18 18 18 18 18 18 18 19 19 19
25 21 22 25 27 27 29 30 30 28 26 25 25 25 24 23 23 21 21 21 21 21 21 22 22 21 21 21 20 20 20 20 20 20 19 19 19 19 18 18 18 18 18 18 18 18 19 18 18
24 23 24 26 28 28 29 30 30 27 24 24 24 24 23 24 23 22 21 21 22 22 21 21 22 21 21 21 20 20 20 20 20 19 19 19 19 18 18 18 18 18 18 18 18 18 18 18 18
24 25 26 27 28 29 30 30 28 26 25 26 26 25 24 24 23 22 22 22 22 21 21 21 21 21 21 20 20 20 20 19 19 19 19 19 19 18 18 18 18 18 18 18 18 18 18 18 18
24 25 27 28 29 29 30 30 27 25 26 25 25 25 24 24 24 23 22 22 21 21 21 21 20 21 20 20 19 19 19 19 19 19 19 18 18 18 18 18 18 18 18 18 18 18 18 18 18
25 26 27 28 29 29 29 29 26 24 24 24 24 24 24 24 24 23 22 22 22 21 21 21 20 20 19 19 19 19 19 19 19 19 19 18 18 18 18 18 18 18 18 18 18 18 18 18 18
27 25 24 26 27 29 29 28 26 24 23 23 23 24 24 24 23 23 23 22 22 22 21 21 20 20 19 19 19 19 19 19 19 19 19 18 18 18 18 18 18 18 18 18 18 18 18 18 18
24 23 23 25 26 28 28 26 26 24 23 22 22 23 23 23 23 23 23 23 22 22 21 21 21 20 20 20 19 19 19 19 19 19 19 18 18 18 18 18 18 18 18 18 18 18 18 18 18
22 22 23 25 26 27 27 25 26 25 23 22 22 22 22 22 22 22 22 22 22 22 21 21 21 21 21 20 20 20 19 19 19 19 18 18 18 18 18 18 18 18 18 18 18 18 18 18 18
21 22 23 24 26 27 26 25 26 25 24 22 22 21 21 22 22 22 22 22 22 22 22 21 21 21 20 20 20 20 19 19 18 18 18 18 18 18 18 18 18 18 18 18 18 18 18 18 18
23 23 23 25 26 26 25 25 26 25 24 22 21 21 21 21 22 22 22 22 21 21 21 21 21 20 20 20 19 19 19 18 18 18 18 18 18 18 17 17 17 17 17 17 17 17 17 18 18
24 24 23 24 25 26 25 25 25 24 24 23 21 21 20 20 21 21 22 21 21 21 20 20 20 20 19 19 19 18 18 18 18 18 17 17 17 17 17 17 17 17 17 17 17 17 17 17 17
24 24 24 23 23 23 23 22 23 25 25 23 22 21 20 20 20 20 20 20 20 20 20 20 19 19 19 19 19 18 18 18 18 17 17 17 17 17 17 17 17 17 17 17 17 17 16 17 17
23 24 25 24 21 20 22 20 21 23 22 22 21 20 19 19 19 19 20 20 20 20 20 19 19 19 19 19 19 18 18 18 18 18 18 17 17 17 17 17 17 17 16 16 16 16 16 16 17
24 24 24 23 21 20 20 20 20 20 21 20 19 18 18 18 18 18 18 19 19 19 18 18 18 18 18 18 18 18 18 17 17 17 17 17 17 17 17 16 16 16 16 16 16 16 16 16 16
23 22 20 18 18 18 20 20 19 18 19 19 17 16 16 16 16 16 16 17 17 17 17 17 17 17 17 17 17 17 17 17 17 17 17 17 17 16 16 16 16 16 15 15 15 16 16 16 16
21 18 17 17 16 17 19 19 18 17 17 17 16 15 15 15 15 15 15 15 15 16 16 16 16 16 16 16 16 16 16 16 16 17 17 17 16 15 15 15 15 15 15 15 15 15 15 15 16
21 18 17 17 16 16 18 18 17 16 15 15 15 14 14 15 15 15 15 15 15 15 16 16 16 15 15 15 15 15 15 16 16 16 16 16 15 15 15 14 14 14 14 14 14 14 15 15 15
20 17 17 15 16 16 16 17 16 16 15 15 14 14 14 14 15 15 15 15 15 15 15 15 15 15 14 14 15 15 15 15 15 15 15 15 14 14 14 14 14 14 14 14 14 14 14 14 14
17 16 14 14 15 14 15 15 15 14 14 14 14 13 14 14 14 15 15 14 14 14 14 14 14 14 14 14 14 14 14 14 14 14 14 14 14 14 14 14 14 14 14 14 13 14 14 14 14
17 15 13 12 13 13 13 13 15 13 13 13 13 14 14 14 14 14 14 14 13 14 14 14 14 14 14 14 14 14 14 14 14 14 14 13 13 13 13 13 13 13 13 13 13 13 13 13 13
17 15 13 13 12 12 11 12 14 13 13 13 13 14 14 14 14 14 14 14 13 13 13 13 13 13 13 13 13 13 13 13 13 13 13 13 13 13 13 13 13 13 13 13 13 13 13 13 13
Wind_Speed
7 5 4 2 2 5 5 8 5 3 7 8 14 13 10 6 5 7 6 17 21 18 19 23 24 23 22 20 18 17 15 14 14 13 13 13 13 13 13 12 11 11 10 9 8 8 7 7 8
4 2 3 2 3 3 2 5 4 4 11 13 13 11 9 8 9 13 10 19 21 18 20 21 24 23 22 21 19 18 16 14 13 12 12 11 11 12 12 11 10 9 8 8 8 7 7 6 7
3 2 2 2 1 4 6 6 5 8 10 8 7 7 6 9 13 10 12 21 18 15 18 22 24 23 22 21 20 19 17 15 13 13 12 12 11 11 11 10 9 8 7 7 7 7 6 6 6
3 4 4 3 4 5 8 9 7 11 9 10 10 7 5 7 9 13 21 21 18 13 16 20 22 22 22 21 21 20 18 16 15 14 14 13 12 12 11 10 10 9 8 7 6 6 7 6 6
3 4 5 4 6 4 5 7 7 11 6 8 12 8 4 4 20 23 22 21 18 13 15 20 22 21 21 21 21 20 19 17 15 15 14 14 13 13 12 11 10 9 9 7 6 6 6 7 7
4 4 3 4 6 5 4 6 9 11 11 10 13 9 4 13 23 23 22 19 18 17 14 18 22 22 21 21 22 21 19 17 16 15 15 14 14 14 13 12 11 11 10 9 8 7 7 7 8
2 2 3 5 6 6 6 7 11 11 11 11 13 8 7 13 18 20 19 19 17 16 14 14 18 20 21 20 20 20 19 18 17 17 17 16 16 15 14 13 12 12 11 10 10 9 9 9 9
4 2 4 4 6 7 5 4 4 12 9 13 10 11 9 13 17 19 18 17 16 15 13 11 14 16 16 17 19 19 19 18 18 17 17 16 15 15 14 13 13 13 13 12 11 11 11 11 11
1 2 4 4 5 8 11 3 2 6 12 7 5 6 13 17 20 20 17 14 13 14 12 10 10 12 14 14 17 18 18 18 17 16 16 15 13 12 12 13 15 15 15 14 14 13 13 13 13
4 3 7 6 5 9 14 4 4 5 9 6 9 11 18 17 19 21 20 18 16 16 14 12 11 10 12 14 14 13 14 15 15 14 15 14 12 12 13 14 17 18 17 16 16 15 15 14 12
4 7 6 9 11 10 10 5 3 10 4 8 17 19 17 15 16 19 19 18 17 17 16 14 13 11 11 8 10 10 11 12 13 14 15 13 12 12 12 12 14 17 18 15 13 14 13 12 11
6 11 11 12 14 9 9 3 4 5 8 12 20 20 15 14 14 16 17 16 16 16 16 15 14 12 11 9 9 9 9 9 10 14 15 12 7 7 8 8 10 11 11 10 10 9 11 12 13
8 12 16 17 16 10 10 4 5 4 15 18 21 19 16 14 11 10 12 14 13 13 14 15 14 13 11 8 7 8 8 9 12 13 15 14 8 6 5 4 6 8 9 8 7 7 7 8 10
9 10 12 14 15 10 8 5 7 7 20 21 21 19 18 18 14 11 11 12 13 12 13 13 12 11 9 8 8 5 8 10 10 11 16 17 12 6 4 4 4 6 9 9 8 7 6 6 6
5 9 13 10 9 7 5 7 5 15 21 21 20 18 17 14 12 12 13 12 12 11 12 13 12 10 9 8 7 4 6 8 6 8 12 13 12 9 6 6 6 6 9 8 7 7 6 6 6
7 6 7 12 8 8 2 10 7 18 22 19 17 15 13 9 9 9 10 10 10 9 12 14 13 10 8 7 5 3 3 4 4 5 7 8 10 11 7 6 6 8 8 5 5 5 5 6 6
5 4 8 11 9 8 7 10 8 16 20 19 17 14 11 8 5 4 5 8 10 10 12 12 10 10 9 7 5 4 2 1 1 2 3 3 5 7 6 5 5 7 5 5 6 6 5 6 7
7 6 8 10 11 9 10 14 12 15 19 19 17 15 13 11 9 7 7 10 10 10 11 11 9 9 8 6 4 3 1 0 1 2 3 3 3 3 4 3 5 5 5 6 6 7 7 6 7
9 9 10 9 8 6 8 12 14 13 16 16 15 16 15 15 14 14 14 13 11 9 9 9 7 6 5 4 3 3 2 1 1 2 2 3 3 4 4 4 6 6 6 8 8 7 8 7 5
7 4 6 7 8 7 7 7 2 9 15 19 20 19 18 16 15 14 12 11 9 7 7 6 5 5 5 4 3 3 3 2 1 2 4 5 5 6 5 6 7 7 7 8 9 8 6 6 5
6 4 4 6 8 8 9 10 7 2 3 9 13 15 17 20 19 16 11 8 8 7 6 6 5 5 5 5 4 4 4 3 3 3 3 4 6 7 7 7 8 8 8 8 9 9 10 8 7
5 5 4 6 8 5 6 5 9 5 3 1 5 7 8 10 11 11 12 11 10 9 8 8 7 6 5 5 5 5 3 2 1 1 3 5 6 7 7 7 8 9 8 9 10 10 8 8 7
6 5 4 4 4 5 5 1 9 7 5 3 3 6 7 7 5 5 7 10 11 10 9 8 7 6 5 6 6 6 5 3 1 2 3 4 5 6 7 7 7 7 7 8 9 8 8 7 7
5 7 9 7 6 4 6 3 8 5 6 3 5 9 10 10 9 7 5 4 6 8 9 8 7 5 5 6 6 6 6 3 2 2 3 4 4 5 7 7 7 6 5 5 5 6 6 5 5
8 7 6 7 6 5 6 5 6 7 10 3 7 8 8 8 8 6 5 5 3 5 6 7 7 5 5 6 6 6 5 4 2 1 2 3 3 4 7 7 6 5 5 4 3 2 1 1 2
2 6 5 3 4 6 6 5 4 8 9 9 8 6 6 5 5 4 3 3 4 4 5 6 7 6 5 5 4 4 5 3 2 2 2 2 2 3 5 6 6 6 6 5 5 4 3 3 2
4 3 5 6 1 3 5 5 4 6 6 6 4 3 2 1 2 3 2 3 3 3 4 6 7 6 4 3 3 3 4 3 2 2 2 2 3 3 5 5 5 5 5 5 5 4 4 4 3
7 6 6 5 1 4 5 5 5 5 3 3 2 3 4 3 3 2 1 2 1 1 2 4 5 4 2 2 2 3 3 3 2 1 1 2 3 4 5 5 5 5 5 4 3 3 3 3 2
4 5 7 5 4 4 5 7 6 5 3 3 4 5 6 5 6 4 2 2 1 1 2 3 3 3 3 2 2 4 3 4 3 2 2 3 3 4 5 5 5 5 5 5 4 4 3 2 1
6 7 8 5 5 5 4 8 8 7 6 5 6 6 6 6 5 4 3 4 3 3 4 5 4 3 2 1 2 4 5 5 4 2 2 2 3 4 4 4 4 5 5 5 5 4 3 2 1
Wind_Direction
278 250 171 119 60 55 17 324 313 18 63 68 81 90 89 73 130 150 139 146 140 144 150 150 149 149 148 147 147 147 144 137 131 126 122 121 121 122 125 129 131 131 128 125 119 115 115 123 129
292 264 141 84 79 86 157 248 267 107 135 119 86 82 81 76 93 120 128 144 142 144 148 150 151 151 151 151 152 151 150 146 141 138 134 132 131 130 130 132 134 136 139 144 143 136 133 137 144
275 205 106 87 141 181 187 212 190 138 132 107 93 72 77 112 121 135 144 145 141 142 147 152 152 155 156 157 157 156 155 154 153 152 149 147 145 141 139 139 141 145 148 152 159 157 154 157 166
355 26 42 54 262 239 187 191 144 113 82 84 101 76 69 111 128 141 143 147 142 140 147 152 152 156 160 162 163 163 163 163 163 164 164 163 161 158 154 154 154 156 157 158 162 168 172 179 191
54 50 25 331 287 266 171 177 134 124 107 104 105 92 64 73 127 140 147 148 144 144 152 155 156 157 161 166 169 169 171 170 169 170 171 172 170 168 168 170 168 165 164 168 176 184 193 201 206
24 57 41 292 290 302 195 164 116 112 115 118 111 111 108 128 138 149 149 148 148 151 156 160 162 162 163 166 171 174 175 174 173 175 176 177 178 180 181 183 183 182 181 184 191 199 206 212 216
118 64 246 265 294 291 245 182 147 143 143 148 133 110 130 147 150 151 149 148 151 154 159 164 168 168 169 169 171 175 176 176 177 180 183 184 188 190 191 193 195 197 198 200 205 212 218 223 227
155 83 290 296 294 294 285 189 161 141 136 135 133 134 158 172 150 149 145 147 152 158 163 166 170 172 173 174 175 176 179 181 183 186 190 193 196 198 200 202 205 209 212 216 220 226 231 234 236
71 34 253 254 291 307 325 341 58 88 119 144 129 143 154 153 140 144 145 148 157 164 169 169 172 173 174 176 180 180 182 185 188 192 197 201 206 210 214 217 218 220 222 226 231 236 242 245 246
120 208 235 222 273 301 308 304 138 100 94 83 87 110 139 145 141 148 156 162 168 171 176 176 178 177 175 181 183 183 184 189 193 197 202 207 211 217 226 234 235 234 232 233 237 241 246 250 248
200 227 259 272 276 281 293 313 90 121 111 140 133 137 149 150 146 155 166 171 174 174 177 181 181 181 181 185 177 185 188 192 200 205 211 213 217 224 232 237 242 242 240 238 242 241 243 246 244
270 276 279 281 284 281 283 324 59 118 169 149 138 143 152 164 164 166 171 175 174 176 181 182 183 184 188 187 182 188 191 197 204 213 216 214 219 225 228 229 226 222 225 227 231 238 244 247 249
267 271 276 276 277 272 277 286 108 129 141 142 141 146 158 172 176 167 166 169 174 180 183 183 186 188 190 189 189 192 198 201 203 207 215 214 216 223 217 211 205 208 217 227 231 235 240 243 247
260 276 284 284 276 271 268 263 111 149 147 150 154 160 169 176 177 167 164 167 176 178 182 184 189 187 176 179 186 187 199 209 205 209 213 212 212 211 192 194 193 204 214 223 228 229 231 243 243
282 299 296 287 282 270 271 280 188 159 157 160 166 169 174 174 176 174 173 175 179 178 175 185 190 183 172 167 170 169 175 173 180 192 196 203 209 207 196 195 201 210 215 222 231 233 232 245 247
344 334 303 292 290 294 285 260 249 160 163 167 172 174 173 166 172 175 176 184 186 176 173 183 189 182 178 172 171 169 164 156 183 193 195 205 212 210 201 202 212 219 221 220 225 225 229 241 243
348 311 288 293 287 286 283 262 246 169 166 168 174 176 163 144 138 163 189 201 200 186 178 181 181 178 182 180 174 171 151 134 181 213 224 235 240 222 208 212 219 220 221 226 231 225 218 236 245
264 284 293 286 286 281 277 266 252 178 173 171 171 167 157 149 155 173 202 213 213 202 186 184 180 181 183 178 167 159 141 158 207 208 216 219 231 220 206 222 233 227 228 236 235 237 234 232 238
251 270 278 276 291 295 283 276 248 185 170 167 169 170 165 161 167 176 197 210 210 201 189 175 158 172 173 169 166 157 167 196 293 300 308 309 284 262 240 242 244 236 232 235 234 235 242 244 233
244 274 299 307 325 343 323 329 286 162 173 173 174 176 171 165 171 182 197 202 198 177 169 151 139 136 152 153 139 131 134 124 89 29 18 9 345 315 289 264 257 252 248 248 242 235 239 242 217
324 316 317 321 343 11 16 345 346 358 152 175 181 180 174 169 170 171 163 156 144 137 129 121 115 115 109 113 113 103 86 65 41 18 0 344 334 316 293 273 266 260 250 251 246 237 235 240 237
313 307 351 10 23 337 38 324 303 316 351 126 165 163 164 155 151 148 141 136 130 122 114 110 111 102 89 89 97 102 106 103 76 2 330 320 321 314 304 288 276 265 255 249 249 243 230 225 235
295 312 17 20 28 355 16 10 291 342 344 333 51 73 85 91 97 110 124 129 127 127 122 120 117 112 108 99 100 101 98 99 59 4 336 324 323 326 328 316 303 283 267 256 251 245 230 219 217
354 16 16 31 48 343 303 296 282 313 313 315 85 81 77 72 62 45 34 71 115 128 131 132 129 124 117 105 102 105 104 92 61 0 331 331 331 333 339 337 333 322 308 289 270 253 235 224 213
36 56 18 356 359 274 309 306 281 357 353 13 112 97 83 78 73 57 36 20 45 100 119 127 129 121 113 109 113 120 119 115 113 49 347 352 343 337 335 339 345 350 353 353 357 8 344 234 193
22 108 140 223 249 284 321 284 328 31 28 48 73 88 91 92 96 92 72 48 19 47 83 102 112 112 118 129 140 133 117 106 84 43 20 3 333 316 323 334 347 359 8 12 22 31 26 29 31
97 86 152 149 263 289 287 313 21 31 39 41 42 40 65 116 130 120 95 71 43 22 58 91 107 112 122 135 131 118 110 97 74 45 21 341 319 313 330 341 353 0 8 13 18 26 25 30 28
102 130 85 86 339 288 295 302 279 316 346 14 339 301 282 282 277 239 163 100 87 25 52 85 107 111 89 66 91 131 137 138 129 114 292 290 299 310 323 334 344 349 353 354 356 3 5 30 19
119 83 96 107 151 192 262 267 233 213 227 231 245 247 252 259 270 264 216 165 154 56 38 54 68 71 58 58 95 124 136 143 144 178 243 268 287 305 315 323 333 337 337 334 330 324 323 323 313
137 154 148 157 212 198 215 263 258 207 216 226 237 237 235 239 243 229 184 153 130 90 67 59 50 46 40 63 100 120 128 133 144 179 245 274 299 305 307 328 351 355 355 353 347 336 341 346 30
Height
1514 1513 1512 1512 1514 1521 1525 1515 1501 1493 1493 1496 1495 1498 1503 1508 1514 1524 1522 1524 1528 1531 1534 1537 1539 1540 1542 1544 1546 1548 1549 1551 1552 1553 1554 1555 1555 1555 1556 1557 1558 1558 1559 1560 1560 1561 1561 1562 1562
1513 1512 1512 1512 1518 1530 1529 1512 1502 1495 1495 1495 1497 1501 1504 1510 1512 1515 1519 1525 1528 1530 1533 1536 1539 1540 1542 1544 1546 1548 1549 1551 1552 1553 1554 1555 1556 1556 1557 1557 1558 1559 1560 1561 1561 1561 1562 1562 1562
1512 1511 1512 1513 1518 1523 1520 1504 1496 1496 1495 1492 1499 1504 1507 1512 1514 1517 1520 1524 1528 1530 1533 1536 1538 1540 1542 1544 1546 1547 1549 1551 1552 1553 1554 1555 1556 1557 1558 1558 1559 1559 1560 1561 1561 1561 1561 1561 1562
1512 1511 1511 1517 1517 1506 1501 1495 1493 1496 1497 1497 1499 1507 1511 1514 1515 1518 1522 1525 1527 1530 1533 1536 1538 1540 1542 1543 1545 1547 1548 1550 1552 1553 1554 1555 1556 1557 1558 1559 1559 1560 1560 1561 1561 1561 1561 1561 1561
1511 1511 1516 1521 1513 1498 1492 1489 1490 1492 1495 1499 1499 1508 1513 1515 1516 1520 1522 1525 1528 1530 1533 1536 1538 1540 1541 1543 1545 1547 1548 1550 1551 1553 1554 1555 1556 1557 1558 1559 1559 1559 1560 1560 1561 1561 1561 1560 1560
1512 1512 1524 1526 1512 1498 1491 1488 1488 1492 1497 1501 1501 1508 1515 1516 1518 1521 1523 1526 1528 1531 1533 1536 1538 1539 1541 1543 1544 1546 1548 1549 1550 1551 1553 1554 1555 1556 1557 1557 1558 1558 1559 1559 1559 1560 1560 1560 1559
1514 1516 1521 1517 1511 1501 1491 1487 1486 1490 1495 1499 1499 1508 1515 1518 1519 1522 1524 1527 1529 1531 1533 1535 1537 1538 1540 1542 1543 1545 1547 1548 1549 1550 1551 1552 1553 1554 1555 1556 1557 1557 1557 1557 1558 1558 1558 1558 1558
1512 1515 1517 1516 1510 1502 1490 1488 1487 1489 1493 1498 1499 1503 1511 1516 1519 1522 1525 1528 1529 1531 1533 1534 1535 1537 1538 1540 1542 1544 1545 1547 1548 1549 1550 1551 1553 1554 1554 1555 1555 1556 1556 1556 1556 1556 1556 1556 1556
1512 1518 1522 1514 1507 1499 1491 1490 1490 1490 1492 1497 1499 1500 1504 1514 1518 1521 1524 1527 1529 1530 1532 1533 1534 1536 1537 1539 1541 1542 1544 1546 1547 1548 1550 1551 1552 1553 1553 1554 1554 1555 1555 1555 1555 1555 1555 1554 1554
1510 1520 1513 1504 1500 1498 1493 1490 1490 1493 1494 1497 1499 1503 1508 1513 1517 1519 1521 1525 1527 1528 1530 1532 1534 1535 1536 1538 1539 1541 1543 1545 1546 1548 1549 1550 1551 1551 1552 1553 1553 1553 1553 1553 1553 1553 1552 1552 1551
1507 1509 1502 1499 1497 1497 1493 1489 1488 1492 1496 1495 1497 1504 1510 1514 1516 1518 1520 1523 1526 1528 1529 1531 1533 1534 1536 1537 1539 1540 1542 1544 1545 1547 1548 1549 1549 1550 1550 1551 1551 1551 1551 1552 1551 1551 1550 1550 1549
1506 1502 1499 1496 1495 1495 1492 1489 1489 1490 1493 1494 1495 1501 1509 1514 1516 1517 1519 1523 1526 1527 1529 1531 1532 1534 1535 1537 1538 1540 1541 1543 1544 1545 1547 1547 1548 1548 1549 1549 1549 1549 1549 1550 1549 1549 1549 1549 1548
1504 1500 1496 1494 1492 1491 1490 1487 1488 1490 1491 1494 1495 1499 1505 1511 1516 1519 1522 1524 1526 1528 1529 1531 1533 1534 1535 1536 1537 1539 1541 1542 1543 1544 1544 1545 1546 1546 1547 1547 1547 1547 1547 1547 1547 1547 1547 1547 1546
1501 1498 1494 1491 1489 1487 1487 1486 1488 1492 1491 1493 1494 1496 1501 1506 1512 1518 1521 1524 1526 1527 1529 1531 1532 1534 1534 1535 1536 1538 1539 1540 1541 1542 1543 1543 1543 1544 1545 1545 1545 1544 1544 1544 1544 1544 1544 1544 1544
1499 1499 1494 1488 1486 1484 1485 1488 1486 1488 1490 1493 1494 1495 1499 1504 1511 1515 1519 1522 1525 1527 1528 1530 1532 1534 1535 1535 1536 1537 1538 1539 1540 1541 1541 1542 1542 1542 1543 1542 1542 1542 1542 1541 1541 1541 1541 1541 1540
1500 1503 1506 1491 1484 1482 1489 1497 1483 1486 1488 1491 1493 1495 1499 1504 1509 1514 1518 1521 1524 1525 1526 1528 1530 1532 1534 1536 1537 1537 1538 1538 1539 1540 1540 1540 1540 1541 1540 1540 1539 1539 1539 1538 1538 1538 1537 1537 1537
1511 1515 1509 1497 1484 1483 1487 1492 1480 1485 1486 1489 1492 1496 1500 1503 1508 1513 1516 1520 1524 1525 1525 1527 1528 1530 1532 1533 1535 1536 1536 1537 1537 1537 1538 1538 1538 1538 1537 1537 1536 1536 1535 1534 1534 1533 1533 1533 1533
1520 1516 1510 1504 1489 1485 1488 1486 1477 1480 1482 1485 1489 1494 1498 1501 1504 1508 1511 1516 1520 1522 1523 1525 1526 1528 1530 1531 1531 1532 1533 1534 1534 1534 1534 1534 1534 1534 1534 1533 1532 1532 1530 1530 1529 1529 1529 1528 1528
1508 1510 1510 1499 1487 1485 1486 1481 1472 1475 1480 1484 1487 1490 1494 1496 1499 1502 1507 1511 1515 1517 1519 1520 1522 1524 1525 1527 1528 1528 1530 1531 1531 1531 1531 1531 1530 1530 1529 1528 1527 1526 1525 1524 1523 1523 1523 1522 1523
1502 1505 1505 1496 1487 1484 1485 1480 1472 1472 1475 1478 1481 1485 1488 1491 1495 1498 1501 1505 1509 1511 1514 1516 1517 1519 1521 1522 1523 1525 1526 1527 1527 1528 1527 1527 1526 1524 1523 1522 1521 1519 1518 1517 1516 1516 1516 1516 1517
1499 1502 1502 1500 1492 1487 1489 1493 1483 1476 1475 1478 1480 1481 1483 1484 1487 1492 1495 1499 1503 1507 1510 1511 1514 1516 1517 1518 1519 1520 1522 1522 1523 1523 1523 1522 1520 1518 1516 1515 1513 1512 1511 1509 1508 1509 1509 1509 1510
1506 1494 1493 1494 1503 1509 1503 1518 1495 1485 1482 1481 1481 1483 1485 1488 1488 1489 1491 1495 1498 1502 1506 1507 1510 1513 1514 1515 1515 1517 1518 1518 1519 1519 1518 1517 1515 1512 1510 1508 1506 1504 1503 1502 1501 1502 1502 1503 1503
1497 1491 1492 1494 1503 1511 1508 1515 1506 1490 1490 1488 1487 1487 1489 1491 1493 1493 1493 1492 1494 1498 1501 1503 1507 1509 1510 1512 1513 1513 1514 1515 1515 1514 1514 1512 1510 1507 1505 1502 1500 1497 1496 1495 1495 1495 1495 1496 1498
1492 1495 1499 1504 1513 1527 1515 1516 1515 1501 1496 1491 1491 1491 1491 1493 1494 1496 1497 1496 1495 1496 1497 1500 1503 1505 1507 1508 1509 1510 1511 1511 1511 1511 1510 1508 1506 1503 1501 1499 1496 1494 1491 1490 1489 1489 1490 1490 1492
1499 1515 1532 1535 1540 1535 1515 1515 1514 1502 1498 1494 1493 1494 1494 1494 1495 1497 1499 1499 1497 1496 1497 1497 1500 1503 1504 1506 1507 1508 1508 1508 1507 1506 1505 1504 1502 1500 1499 1496 1494 1491 1489 1487 1486 1486 1486 1486 1487
1505 1515 1538 1546 1546 1536 1519 1519 1515 1508 1505 1501 1499 1499 1498 1497 1496 1497 1498 1498 1499 1498 1497 1497 1499 1501 1503 1504 1506 1506 1506 1505 1504 1503 1502 1501 1500 1498 1497 1495 1492 1490 1488 1487 1485 1484 1483 1484 1484
1508 1519 1519 1534 1535 1538 1530 1519 1513 1509 1508 1507 1506 1503 1501 1499 1496 1496 1494 1495 1497 1499 1497 1497 1499 1501 1502 1503 1504 1504 1504 1504 1503 1502 1501 1499 1498 1497 1495 1493 1491 1490 1488 1487 1485 1483 1482 1482 1482
1507 1515 1526 1535 1543 1548 1537 1530 1524 1515 1511 1509 1507 1505 1502 1500 1498 1496 1494 1494 1496 1498 1497 1497 1499 1500 1501 1502 1503 1503 1503 1503 1502 1501 1500 1498 1497 1496 1494 1492 1490 1489 1487 1486 1485 1484 1482 1482 1481
1513 1521 1529 1537 1539 1548 1550 1539 1512 1511 1508 1506 1505 1502 1499 1497 1497 1495 1494 1494 1495 1497 1497 1497 1498 1499 1500 1502 1503 1502 1502 1502 1501 1501 1500 1498 1497 1495 1493 1492 1490 1488 1487 1486 1484 1483 1482 1482 1482
1505 1515 1524 1536 1541 1542 1547 1537 1504 1505 1503 1502 1500 1498 1495 1494 1494 1493 1493 1493 1494 1496 1496 1497 1498 1499 1500 1501 1502 1502 1502 1501 1500 1500 1499 1498 1496 1495 1493 1492 1490 1488 1487 1486 1485 1484 1483 1483 1482